Flag for Mongolia Weather past 2 weeks in Ulaanbaatar, Mongolia

Now
-15 °F

Clear.


Feels Like: -15 °F
Forecast: -21 / 10 °F
Wind: 1 mph from North

Location: Ulan-Bator

Current Time: Feb 2, 2015 at 3:06:53 AM

Latest Report: Feb 2, 2015 at 2:30 AM


Visibility: 4 mi

Pressure: 30.15 "Hg

Humidity: 76%

Dew point: -20 °F

Location of UlaanbaatarLocation

Historic Weather in Ulaanbaatar — Graph

°F

Ulaanbaatar temperature yesterday

Maximum temperature yesterday: 19 °F (at 4:30 PM)
Minimum temperature yesterday: -9 °F (at 2:00 AM)
Average temperature yesterday: 1 °F

Past Weeks' High & Low Weather Summary

 TemperatureHumidityPressure
High27 °F (Jan 22, 4:30 PM)86% (Jan 22, 7:00 PM)30.57 "Hg (Jan 22, 7:00 PM)
Low-29 °F (Jan 26, 8:30 AM)35% (Feb 1, 4:30 PM)29.59 "Hg (Jan 22, 10:00 AM)
Average-5 °F68%30.12 "Hg
* Reported Jan 18 2:00 AM — Feb 2 2:00 AM, Ulaanbaatar, Weather by CustomWeather, © 2014

Note: Actual official high and low records may vary slightly from our data, if they occured in-between our weather recording intervals... More about our weather records

Advertising

Ulaanbaatar weather history for previous 24 hours

 ConditionsComfort  
Time TempWeatherWind HumidityBarometerVisibility
2:00 AM
Feb 2
-11 °FClear.No wind76%30.15 "Hg4 mi
1:30 AM-11 °FClear.1 mph76%30.15 "Hg5 mi
1:00 AM-11 °FClear.No wind76%30.15 "Hg5 mi
12:30 AM-11 °FClear.1 mph76%30.15 "Hg5 mi
12:00 AM-9 °FClear.1 mph70%30.15 "Hg10 mi
11:30 PM
Feb 1
-9 °FClear.No wind77%30.15 "Hg10 mi
11:00 PM-8 °FClear.1 mph70%30.15 "Hg10 mi
10:30 PM-9 °FClear.No wind70%30.15 "Hg10 mi
10:00 PM-4 °FClear.1 mph71%30.15 "Hg10 mi
9:30 PM-8 °FClear.1 mph70%30.12 "Hg10 mi
9:00 PM-2 °FClear.1 mph65%30.12 "Hg10 mi
8:30 PM1 °FClear.1 mph60%30.12 "Hg10 mi
8:00 PM7 °FClear.1 mph56%30.12 "Hg10 mi
7:30 PM7 °FClear.1 mph51%30.12 "Hg10 mi
7:00 PM5 °FClear.3 mph55%30.09 "Hg10 mi
6:30 PM10 °FSunny.6 mph47%30.09 "Hg10 mi
6:00 PM7 °FSunny.6 mph56%30.09 "Hg10 mi
5:30 PM14 °FScattered clouds.6 mph44%30.09 "HgN/A
5:00 PM18 °FScattered clouds.6 mph38%30.09 "HgN/A
4:30 PM19 °FScattered clouds.1 mph35%30.09 "HgN/A
4:00 PM18 °FScattered clouds.1 mph38%30.09 "HgN/A
3:30 PM18 °FScattered clouds.1 mph38%30.09 "HgN/A
3:00 PM18 °FScattered clouds.1 mph38%30.09 "HgN/A
2:30 PM16 °FScattered clouds.3 mph41%30.09 "HgN/A
2:00 PM14 °FScattered clouds.1 mph44%30.12 "HgN/A
1:30 PM12 °FPartly sunny.No wind48%30.12 "HgN/A
1:00 PM10 °FPartly sunny.No wind47%30.12 "HgN/A
12:30 PM9 °FPartly sunny.No wind51%30.15 "Hg5 mi
12:00 PM7 °FPartly sunny.No wind51%30.18 "Hg5 mi
11:30 AM5 °FScattered clouds.No wind55%30.18 "Hg5 mi
11:00 AM1 °FScattered clouds.1 mph65%30.18 "HgN/A
10:30 AM-2 °FScattered clouds.1 mph71%30.18 "HgN/A
10:00 AM-4 °FPartly sunny.1 mph71%30.18 "HgN/A
9:30 AM-6 °FPartly sunny.1 mph70%30.18 "HgN/A
9:00 AM-6 °FPassing clouds.No wind70%30.18 "HgN/A
8:30 AM-6 °FPassing clouds.1 mph70%30.18 "HgN/A
8:00 AM-6 °FPassing clouds.3 mph70%30.15 "HgN/A
7:30 AM-6 °FPassing clouds.No wind70%30.15 "HgN/A
7:00 AM-6 °FPassing clouds.1 mph70%30.15 "HgN/A
6:30 AM-6 °FPassing clouds.1 mph70%30.18 "HgN/A
6:00 AM-8 °FPassing clouds.1 mph70%30.18 "HgN/A
5:30 AM-6 °FPassing clouds.3 mph70%30.18 "HgN/A
4:30 AM-9 °FPassing clouds.3 mph77%30.21 "Hg5 mi
4:00 AM-9 °FPassing clouds.1 mph70%30.21 "Hg5 mi
3:00 AM-9 °FPassing clouds.1 mph70%30.24 "Hg4 mi
Weather by CustomWeather, © 2014

See weather overviewHow to use our weather pages